Satellite: CO-55
Catalog number: 27844
Epoch time:      12277.56435813
Element set:     476
Inclination:      098.7029 deg
RA of node:       284.3798 deg
Eccentricity:    0.0008885
Arg of perigee:   271.1514 deg
Mean anomaly:     088.8651 deg
Mean motion:   14.21083675 rev/day
Decay rate:       4.51e-06 rev/day^2
Epoch rev:           48028
Checksum:              347

Satellite: CO-57
Catalog number: 27848
Epoch time:      12278.50268528
Element set:     426
Inclination:      098.7122 deg
RA of node:       284.6866 deg
Eccentricity:    0.0008899
Arg of perigee:   274.9005 deg
Mean anomaly:     085.1148 deg
Mean motion:   14.20827447 rev/day
Decay rate:       3.06e-06 rev/day^2
Epoch rev:           48035
Checksum:              344

Satellite: AO-51
Catalog number: 28375
Epoch time:      12278.65358140
Element set:     380
Inclination:      098.1605 deg
RA of node:       238.9168 deg
Eccentricity:    0.0084573
Arg of perigee:   069.1792 deg
Mean anomaly:     291.8439 deg
Mean motion:   14.40993987 rev/day
Decay rate:       1.82e-06 rev/day^2
Epoch rev:           43453
Checksum:              351

Satellite: CP3
Catalog number: 31129
Epoch time:      12277.94504195
Element set:    0282
Inclination:      097.8842 deg
RA of node:       279.3450 deg
Eccentricity:    0.0101220
Arg of perigee:   144.3415 deg
Mean anomaly:     216.4581 deg
Mean motion:   14.53234406 rev/day
Decay rate:      1.281e-05 rev/day^2
Epoch rev:           28977
Checksum:              295

Satellite: CO-65
Catalog number: 32785
Epoch time:      12277.73210651
Element set:    0433
Inclination:      097.7866 deg
RA of node:       336.1592 deg
Eccentricity:    0.0015792
Arg of perigee:   069.2769 deg
Mean anomaly:     291.0108 deg
Mean motion:   14.83243785 rev/day
Decay rate:      2.664e-05 rev/day^2
Epoch rev:           23985
Checksum:              345

Satellite: PRISM
Catalog number: 33493
Epoch time:      12278.75050441
Element set:     132
Inclination:      098.1854 deg
RA of node:       062.0617 deg
Eccentricity:    0.0017736
Arg of perigee:   303.8529 deg
Mean anomaly:     056.0994 deg
Mean motion:   14.84456162 rev/day
Decay rate:      4.972e-05 rev/day^2
Epoch rev:           20000
Checksum:              291

Satellite: SOHLA-1
Catalog number: 33496
Epoch time:      12277.87632558
Element set:    0858
Inclination:      098.1138 deg
RA of node:       028.9529 deg
Eccentricity:    0.0007527
Arg of perigee:   060.0044 deg
Mean anomaly:     300.1907 deg
Mean motion:   14.70063300 rev/day
Decay rate:       8.13e-06 rev/day^2
Epoch rev:           19821
Checksum:              297

Satellite: SO-67
Catalog number: 35870
Epoch time:      12278.75176634
Element set:     388
Inclination:      097.2224 deg
RA of node:       310.6433 deg
Eccentricity:    0.0003312
Arg of perigee:   116.9497 deg
Mean anomaly:     349.1081 deg
Mean motion:   15.24710902 rev/day
Decay rate:      7.028e-05 rev/day^2
Epoch rev:           16930
Checksum:              308

Satellite: TISAT-1
Catalog number: 36799
Epoch time:      12278.77722647
Element set:     406
Inclination:      098.0547 deg
RA of node:       355.8891 deg
Eccentricity:    0.0014863
Arg of perigee:   173.0014 deg
Mean anomaly:     187.1391 deg
Mean motion:   14.82332306 rev/day
Decay rate:      3.359e-05 rev/day^2
Epoch rev:           12072
Checksum:              320

Satellite: STUDSAT
Catalog number: 36801
Epoch time:      12277.84118217
Element set:    0497
Inclination:      098.0620 deg
RA of node:       356.1961 deg
Eccentricity:    0.0012600
Arg of perigee:   161.7837 deg
Mean anomaly:     198.3828 deg
Mean motion:   14.85367378 rev/day
Decay rate:     1.0532e-04 rev/day^2
Epoch rev:           12064
Checksum:              309

Satellite: FO-69
Catalog number: 37227
Epoch time:      12278.34281557
Element set:    0301
Inclination:      071.9686 deg
RA of node:       071.0651 deg
Eccentricity:    0.0015487
Arg of perigee:   120.4940 deg
Mean anomaly:     239.8047 deg
Mean motion:   14.77198537 rev/day
Decay rate:       9.91e-06 rev/day^2
Epoch rev:           05221
Checksum:              321

Satellite: FO-70
Catalog number: 37380
Epoch time:      12278.36681255
Element set:    0305
Inclination:      071.9714 deg
RA of node:       071.7126 deg
Eccentricity:    0.0016212
Arg of perigee:   117.5761 deg
Mean anomaly:     242.7091 deg
Mean motion:   14.76947862 rev/day
Decay rate:      1.157e-05 rev/day^2
Epoch rev:           05210
Checksum:              295

Satellite: ALMASAT-1
Catalog number: 38078
Epoch time:      12278.85993318
Element set:     622
Inclination:      069.4779 deg
RA of node:       068.1911 deg
Eccentricity:    0.0739111
Arg of perigee:   111.1034 deg
Mean anomaly:     257.0413 deg
Mean motion:   14.13365514 rev/day
Decay rate:     3.2339e-04 rev/day^2
Epoch rev:            3302
Checksum:              295

Satellite: XATCOBEO
Catalog number: 38082
Epoch time:      12278.84052952
Element set:     595
Inclination:      069.4785 deg
RA of node:       062.7399 deg
Eccentricity:    0.0692464
Arg of perigee:   108.1922 deg
Mean anomaly:     259.5228 deg
Mean motion:   14.26133257 rev/day
Decay rate:     7.1705e-04 rev/day^2
Epoch rev:            3316
Checksum:              331

/EX
SB KEPS @ AMSAT  $ORB12278.W
Orbital Elements  12278.WEATHER

HR AMSAT ORBITAL ELEMENTS FOR WEATHER SATELLITES
FROM WA5QGD FORT WORTH,TX October 4, 2012
BID: ORB12278.W
TO ALL RADIO AMATEURS BT

